Weather observations for the past three days for
Cloquet Carlton County Airport
Imperial (Metric)
Date Time (cdt) Wind (mph) Vis. (mi.) Weather Sky Cond. Temperature (ºF) Relative Humidity Wind Chill (°F) Heat Index (°F) Pressure Precipitation (in)
Air Dwpt 6 hour altimeter (in) sea level (mb) 1 hr 3 hr 6 hr
Max. Min.
19 02:15 W 12 G 18 10.00 Overcast OVC004 62.6 62.6 100% 29.82 0.0
19 01:55 W 14 G 20 10.00 Overcast OVC006 62.6 62.6 100% 29.8 0.0
19 01:35 W 15 10.00 Overcast OVC006 64.4 62.6 94% 29.8 0.0
19 01:15 W 9 10.00 Overcast OVC006 64.4 62.6 94% 29.79 0.0
19 00:55 W 6 10.00 Overcast OVC008 64.4 62.6 94% 29.78 0.0
19 00:35 W 8 10.00 Overcast OVC006 64.4 62.6 94% 29.78 0.0
19 00:15 W 7 10.00 Light Rain BKN006 OVC013 64.4 64.4 100% 29.78 0.0
18 23:55 W 12 G 20 7.00 Light Rain BKN004 OVC011 66.2 64.4 94% 29.76 0.0
18 23:35 W 10 7.00 Light Rain OVC004 66.2 66.2 100% 29.74 0.0
18 23:15 SW 5 10.00 Overcast OVC006 66.2 66.2 100% 29.72 0.0
18 22:55 SW 5 10.00 Overcast SCT005 BKN020 OVC040 66.2 66.2 100% 29.7 0.0
18 22:35 SE 8 10.00 Overcast BKN022 BKN030 OVC037 66.2 66.2 100% 29.68 0.0
18 22:15 Calm 10.00 Light Rain SCT015 BKN022 OVC037 66.2 66.2 100% 29.67 0.0
18 21:55 Calm 7.00 Light Rain SCT005 BKN013 OVC020 66.2 66.2 100% 29.66 0.0
18 21:35 Calm 4.00 Heavy Rain SCT005 BKN017 OVC035 66.2 66.2 100% 29.67 0.0
18 21:15 SW 7 10.00 Rain SCT012 BKN041 OVC075 66.2 64.4 94% 29.65 0.0
18 20:55 W 10 4.00 Rain SCT004 BKN011 OVC044 66.2 64.4 94% 29.66 0.0 0.01
18 20:35 SW 8 G 22 2.50 Heavy Rain BKN002 BKN008 OVC044 66.2 64.4 94% 29.66 0.0 0.01
18 20:15 SW 12 G 20 7.00 Heavy Rain BKN002 BKN007 OVC024 66.2 64.4 94% 29.67 0.0
18 19:55 NW 7 G 23 3.00 Heavy Rain BKN002 BKN006 OVC022 66.2 64.4 94% 29.66 0.0 0.01
18 19:35 NW 16 G 26 2.00 Heavy Rain SCT002 BKN013 OVC035 69.8 66.2 88% 29.68 0.0 0.07
18 19:15 S 8 10.00 Light Rain SCT019 BKN039 OVC048 75.2 71.6 89% 75 29.62 0.0
18 18:55 S 10 7.00 Light Rain SCT018 BKN030 OVC047 75.2 71.6 89% 75 29.61 0.0
18 18:35 S 9 G 16 7.00 Rain SCT026 BKN031 OVC037 75.2 71.6 89% 75 29.59 0.0
18 18:15 S 9 10.00 Light Rain BKN024 OVC030 75.2 71.6 89% 75 29.59 0.0
18 17:55 SW 10 G 17 10.00 Light Rain OVC027 75.2 71.6 89% 75 29.6 0.0
18 17:35 S 10 10.00 Overcast OVC027 75.2 71.6 89% 75 29.6 0.0
18 17:15 S 9 G 20 10.00 Overcast OVC025 75.2 71.6 89% 75 29.61 0.0
18 16:55 S 12 G 18 10.00 Overcast BKN023 OVC027 75.2 71.6 89% 75 29.59 0.0
18 16:35 S 10 G 20 10.00 Overcast BKN024 BKN028 OVC033 75.2 71.6 89% 75 29.59 0.0
18 16:15 S 12 G 20 10.00 Light Rain BKN022 OVC033 75.2 71.6 89% 75 29.59 0.0
18 15:55 S 16 G 23 4.00 Light Rain BKN019 OVC025 73.4 71.6 94% 29.6 0.0
18 15:35 S 8 5.00 Drizzle BKN022 OVC027 66.2 64.4 94% 29.6 0.0
18 15:15 SE 5 10.00 Overcast OVC024 64.4 62.6 94% 29.6 0.0
18 14:55 SE 6 10.00 Overcast OVC026 64.4 62.6 94% 29.6 0.0
18 14:35 SE 6 10.00 Overcast OVC026 64.4 62.6 94% 29.6 0.0
18 14:15 SE 8 7.00 Overcast OVC024 64.4 62.6 94% 29.6 0.0
18 13:55 SE 6 10.00 Overcast OVC024 64.4 60.8 88% 29.61 0.0
18 13:35 E 6 10.00 Overcast OVC024 60.8 59 94% 29.61 0.0
18 13:15 SE 5 10.00 Overcast OVC024 60.8 59 94% 29.62 0.0
18 12:55 SE 7 10.00 Overcast OVC024 60.8 59 94% 29.63 0.0
18 12:35 E 7 10.00 Overcast OVC024 60.8 59 94% 29.63 0.0
18 12:15 SE 3 10.00 Overcast BKN024 OVC029 60.8 57.2 88% 29.64 0.0
18 11:55 E 8 7.00 Overcast SCT003 OVC024 60.8 59 94% 29.65 0.0
18 11:35 E 6 5.00 Fog/Mist SCT003 BKN022 OVC028 60.8 59 94% 29.64 0.0
18 11:15 E 6 4.00 Light Rain OVC022 60.8 59 94% 29.65 0.0
18 10:55 E 5 7.00 Overcast OVC022 60.8 57.2 88% 29.65 0.0
18 10:35 E 5 7.00 Overcast SCT003 OVC022 60.8 57.2 88% 29.65 0.0
18 10:15 E 6 7.00 Overcast OVC022 60.8 59 94% 29.65 0.0
18 09:55 SE 6 7.00 Overcast OVC022 60.8 60.8 100% 29.65 0.0
18 09:35 SE 5 5.00 Fog/Mist SCT002 OVC022 60.8 59 94% 29.64 0.0
18 09:15 SE 7 3.00 Fog/Mist OVC002 59 57.2 94% 29.64 0.0
18 08:55 SE 7 0.75 Fog/Mist OVC002 57.2 55.4 94% 29.65 0.0
18 08:35 E 5 0.25 Fog OVC002 55.4 55.4 100% 29.65 0.0
18 08:15 SE 5 0.25 Fog OVC002 57.2 55.4 94% 29.65 0.0
18 07:55 SE 7 0.25 Fog OVC002 55.4 55.4 100% 29.64 0.0
18 07:35 SE 8 0.75 Fog/Mist OVC002 57.2 55.4 94% 29.64 0.0
18 07:15 SE 6 0.25 Fog OVC002 55.4 55.4 100% 29.63 0.0
18 06:55 SE 8 0.25 Fog OVC002 55.4 55.4 100% 29.64 0.0
18 06:35 E 5 0.25 Fog OVC002 55.4 53.6 94% 29.67 0.0
18 06:15 SE 6 0.25 Fog OVC002 53.6 53.6 100% 29.64 0.0
18 05:55 E 9 0.50 Fog OVC002 53.6 53.6 100% 29.63 0.0
18 05:35 E 9 G 16 1.00 Fog/Mist OVC002 53.6 53.6 100% 29.63 0.0
18 05:15 SE 8 1.75 Fog/Mist OVC002 55.4 53.6 94% 29.63 0.0
18 04:55 E 5 7.00 Overcast BKN002 OVC060 55.4 55.4 100% 29.66 0.0
18 04:35 SE 3 5.00 Fog/Mist SCT003 OVC050 55.4 55.4 100% 29.68 0.0
18 04:15 SW 5 7.00 Light Rain SCT003 OVC050 55.4 55.4 100% 29.7 0.0
18 03:55 E 6 G 24 7.00 Heavy Rain BKN003 OVC050 55.4 53.6 94% 29.68 0.0
18 03:35 NE 5 7.00 Rain OVC003 53.6 53.6 100% 29.66 0.0
18 03:15 E 6 5.00 Rain OVC003 53.6 53.6 100% 29.68 0.0
18 02:55 SE 5 10.00 Light Rain SCT003 BKN021 OVC110 53.6 51.8 94% 29.7 0.0
18 02:35 SE 6 10.00 Rain SCT017 BKN022 BKN028 53.6 51.8 94% 29.71 0.0
18 02:15 SE 8 10.00 Light Rain SCT017 BKN024 OVC050 53.6 51.8 94% 29.71 0.0
18 01:55 SE 7 10.00 Light Rain SCT018 SCT028 BKN065 55.4 51.8 88% 29.73 0.0
18 01:35 E 10 G 16 10.00 Light Drizzle SCT020 SCT029 55.4 50 82% 29.75 0.0
18 01:15 SE 7 10.00 Partly Cloudy SCT029 55.4 48.2 77% 29.78 0.0
18 00:55 SE 6 10.00 Fair CLR 55.4 48.2 77% 29.78 0.0
18 00:35 E 7 10.00 Fair CLR 55.4 48.2 77% 29.77 0.0
18 00:15 E 7 10.00 Partly Cloudy SCT016 SCT075 55.4 48.2 77% 29.77 0.0
17 23:55 Calm 10.00 Mostly Cloudy SCT018 BKN075 55.4 48.2 77% 29.8 0.0
17 23:35 E 6 10.00 Partly Cloudy SCT024 55.4 48.2 77% 29.79 0.0
17 23:15 E 5 10.00 Partly Cloudy SCT024 55.4 48.2 77% 29.82 0.0
17 22:55 E 7 10.00 Mostly Cloudy BKN026 55.4 48.2 77% 29.82 0.0
17 22:35 E 7 10.00 Overcast OVC028 57.2 48.2 72% 29.82 0.0
17 22:15 SE 6 10.00 Overcast OVC030 57.2 48.2 72% 29.83 0.0
17 21:55 E 3 10.00 Partly Cloudy SCT030 57.2 48.2 72% 29.82 0.0
17 21:35 E 5 10.00 Partly Cloudy SCT038 57.2 48.2 72% 29.81 0.0
17 21:15 E 6 10.00 Partly Cloudy SCT038 59 48.2 68% 29.81 0.0
17 20:55 E 5 10.00 Fair CLR 59 50 72% 29.82 0.0
17 20:35 E 7 10.00 Fair CLR 60.8 51.8 72% 29.82 0.0
17 20:15 E 7 10.00 Fair CLR 60.8 51.8 72% 29.82 0.0
17 19:55 E 8 10.00 Fair CLR 60.8 51.8 72% 29.81 0.0
17 19:35 E 7 10.00 Fair CLR 62.6 51.8 68% 29.8 0.0
17 19:15 E 7 10.00 Fair CLR 62.6 51.8 68% 29.81 0.0
17 18:55 E 6 10.00 Fair CLR 64.4 51.8 64% 29.81 0.0
17 18:35 E 3 10.00 Fair CLR 64.4 53.6 68% 29.82 0.0
17 18:15 E 3 10.00 Partly Cloudy SCT060 64.4 53.6 68% 29.82 0.0
17 17:55 E 8 10.00 Partly Cloudy SCT060 66.2 53.6 64% 29.83 0.0
17 17:35 E 8 10.00 Fair CLR 66.2 51.8 60% 29.81 0.0
17 17:15 E 8 10.00 Fair CLR 66.2 53.6 64% 29.81 0.0
17 16:55 E 10 10.00 Fair CLR 66.2 51.8 60% 29.81 0.0
17 16:35 E 7 10.00 Fair CLR 68 53.6 60% 29.83 0.0
17 16:15 SE 3 10.00 Partly Cloudy SCT060 66.2 51.8 60% 29.84 0.0
17 15:55 SE 5 10.00 Mostly Cloudy BKN060 66.2 50 56% 29.85 0.0
17 15:35 SE 5 10.00 Partly Cloudy SCT060 66.2 48.2 52% 29.85 0.0
17 15:15 SE 7 10.00 Fair CLR 66.2 50 56% 29.83 0.0
17 14:55 SE 6 10.00 Fair CLR 66.2 48.2 52% 29.85 0.0
17 14:35 S 5 10.00 Fair CLR 66.2 50 56% 29.86 0.0
17 14:15 SE 7 10.00 Fair CLR 66.2 51.8 60% 29.86 0.0
17 13:55 SE 6 10.00 Fair CLR 66.2 48.2 52% 29.86 0.0
17 13:35 E 3 10.00 Fair CLR 64.4 50 60% 29.85 0.0
17 13:15 SE 5 10.00 Fair CLR 64.4 51.8 64% 29.85 0.0
17 12:55 SE 3 10.00 Partly Cloudy SCT100 64.4 51.8 64% 29.85 0.0
17 12:35 E 5 10.00 Mostly Cloudy BKN100 64.4 50 60% 29.84 0.0
17 12:15 Calm 10.00 Mostly Cloudy BKN100 62.6 48.2 60% 29.85 0.0
17 11:55 Calm 10.00 Mostly Cloudy BKN100 62.6 50 64% 29.83 0.0
17 11:35 E 6 10.00 Partly Cloudy SCT110 62.6 48.2 60% 29.82 0.0
17 11:15 N 3 10.00 Fair CLR 62.6 50 64% 29.83 0.0
17 10:55 Calm 10.00 Partly Cloudy SCT038 60.8 50 68% 29.86 0.0
17 10:35 NW 7 10.00 Light Drizzle BKN038 BKN048 60.8 51.8 72% 29.86 0.0
17 10:15 NW 3 10.00 Light Rain SCT023 BKN043 OVC050 57.2 51.8 82% 29.86 0.0
17 09:55 Calm 10.00 Light Rain SCT025 BKN033 BKN048 57.2 51.8 82% 29.86 0.0
17 09:35 Calm 10.00 Light Drizzle SCT029 SCT060 57.2 51.8 82% 29.87 0.0
17 09:15 SE 3 10.00 Light Rain SCT060 57.2 50 77% 29.87 0.0
17 08:55 Calm 10.00 Light Rain CLR 57.2 48.2 72% 29.89 0.0
17 08:35 Calm 10.00 Partly Cloudy SCT050 SCT090 57.2 48.2 72% 29.9 0.0
17 08:15 Calm 10.00 Light Drizzle SCT050 SCT090 57.2 48.2 72% 29.9 0.0
17 07:55 S 3 10.00 Fair CLR 57.2 46.4 67% 29.89 0.0
17 07:35 Calm 10.00 Fair CLR 57.2 46.4 67% 29.89 0.0
17 07:15 W 5 10.00 Mostly Cloudy BKN085 57.2 46.4 67% 29.89 0.0
17 06:55 SW 5 10.00 Light Rain OVC085 57.2 46.4 67% 29.89 0.0
17 06:35 S 5 10.00 Overcast OVC085 57.2 46.4 67% 29.86 0.0
17 06:15 W 3 10.00 Partly Cloudy SCT085 59 44.6 59% 29.84 0.0
17 05:55 NW 5 10.00 Fair CLR 59 44.6 59% 29.82 0.0
17 05:35 N 6 10.00 Fair CLR 59 44.6 59% 29.81 0.0
17 05:15 N 7 10.00 Fair CLR 60.8 44.6 55% 29.8 0.0
17 04:55 NW 5 10.00 Fair CLR 59 44.6 59% 29.79 0.0
17 04:35 NW 3 10.00 Fair CLR 60.8 44.6 55% 29.78 0.0
17 04:15 NW 6 10.00 Fair CLR 60.8 44.6 55% 29.78 0.0
17 03:55 NW 7 10.00 Fair CLR 59 46.4 63% 29.78 0.0
17 03:35 NW 8 10.00 Fair CLR 60.8 46.4 59% 29.77 0.0
17 03:15 NW 7 10.00 Fair CLR 60.8 46.4 59% 29.78 0.0
17 02:55 NW 6 10.00 Fair CLR 59 46.4 63% 29.77 0.0
17 02:35 NW 6 10.00 Fair CLR 60.8 46.4 59% 29.78 0.0
17 02:15 NW 6 10.00 Fair CLR 60.8 46.4 59% 29.79 0.0
17 01:55 NW 7 10.00 Fair CLR 62.6 46.4 56% 29.79 0.0
17 01:35 NW 9 10.00 Fair CLR 64.4 46.4 52% 29.78 0.0
17 01:15 NW 9 10.00 Fair CLR 66.2 48.2 52% 29.77 0.0
17 00:55 NW 8 10.00 Partly Cloudy SCT060 66.2 51.8 60% 29.77 0.0
17 00:35 NW 8 10.00 Mostly Cloudy SCT049 BKN060 68 53.6 60% 29.78 0.0
17 00:15 W 8 10.00 Mostly Cloudy SCT045 BKN060 BKN065 69.8 55.4 60% 29.78 0.0
16 23:55 NW 14 10.00 Partly Cloudy SCT060 SCT065 SCT080 69.8 57.2 64% 29.77 0.0
16 23:35 W 7 7.00 Partly Cloudy SCT039 69.8 64.4 83% 29.75 0.0
16 23:15 W 9 10.00 Mostly Cloudy BKN039 71.6 64.4 78% 29.75 0.0
16 22:55 W 9 10.00 Partly Cloudy SCT037 71.6 66.2 83% 29.74 0.0
16 22:35 W 5 10.00 Fair CLR 68 66.2 94% 29.72 0.0
16 22:15 Calm 10.00 Partly Cloudy SCT095 66.2 64.4 94% 29.71 0.0
16 21:55 Calm 10.00 Partly Cloudy SCT095 66.2 64.4 94% 29.69 0.0
16 21:35 Calm 10.00 Fair CLR 66.2 64.4 94% 29.67 0.0
16 21:15 Calm 10.00 Partly Cloudy SCT026 68 64.4 88% 29.67 0.0
16 20:55 Calm 10.00 Mostly Cloudy SCT026 BKN045 69.8 66.2 88% 29.67 0.0
16 20:35 Calm 10.00 Fair CLR 69.8 66.2 88% 29.66 0.0
16 20:15 Calm 10.00 Fair CLR 69.8 66.2 88% 29.65 0.0
16 19:55 Calm 10.00 Fair CLR 71.6 66.2 83% 29.65 0.0
16 19:35 Calm 10.00 Fair CLR 71.6 68 88% 29.64 0.0
16 19:15 Calm 10.00 Mostly Cloudy BKN065 71.6 66.2 83% 29.63 0.0
16 18:55 Calm 7.00 Overcast OVC065 71.6 66.2 83% 29.64 0.0
16 18:35 Calm 10.00 Overcast SCT022 SCT028 OVC065 71.6 66.2 83% 29.63 0.0
16 18:15 Calm 10.00 Mostly Cloudy SCT023 SCT028 BKN038 71.6 66.2 83% 29.63 0.0
16 17:55 Calm 10.00 Mostly Cloudy SCT024 SCT031 BKN040 71.6 64.4 78% 29.62 0.0
16 17:35 Calm 10.00 Overcast BKN023 BKN041 OVC060 71.6 66.2 83% 29.61 0.0
16 17:15 Calm 10.00 Overcast BKN023 BKN029 OVC060 71.6 66.2 83% 29.6 0.0
16 16:55 SE 5 10.00 Mostly Cloudy SCT022 BKN060 71.6 66.2 83% 29.6 0.0
16 16:35 E 3 10.00 Mostly Cloudy BKN024 BKN060 69.8 64.4 83% 29.61 0.0
16 16:15 Calm 10.00 Overcast BKN021 OVC028 68 66.2 94% 29.61 0.0
16 15:55 Calm 10.00 Light Drizzle OVC021 68 66.2 94% 29.61 0.0
16 15:35 E 3 7.00 Light Drizzle OVC023 69.8 66.2 88% 29.61 0.0
16 15:15 Calm 7.00 Rain SCT016 BKN024 OVC029 71.6 66.2 83% 29.61 0.0
16 14:55 Calm 10.00 Overcast BKN016 OVC023 71.6 66.2 83% 29.61 0.0
16 14:35 SE 3 10.00 Mostly Cloudy SCT020 BKN027 71.6 66.2 83% 29.6 0.0
16 14:15 SE 3 10.00 Mostly Cloudy BKN017 69.8 64.4 83% 29.6 0.0
16 13:55 SE 3 10.00 Overcast OVC015 66.2 64.4 94% 29.61 0.0
16 13:35 SE 5 10.00 Overcast OVC015 66.2 62.6 88% 29.6 0.0
16 13:15 SE 5 10.00 Overcast SCT004 OVC017 64.4 60.8 88% 29.61 0.0
16 12:55 SE 5 10.00 Overcast BKN004 OVC017 64.4 60.8 88% 29.61 0.0
16 12:35 Calm 10.00 Overcast OVC004 62.6 60.8 94% 29.62 0.0
16 12:15 SE 7 7.00 Overcast OVC004 60.8 59 94% 29.62 0.0
16 11:55 SE 9 5.00 Fog/Mist OVC004 62.6 60.8 94% 29.61 0.0
16 11:35 E 9 7.00 Overcast BKN004 OVC012 64.4 62.6 94% 29.62 0.0
16 11:15 SE 6 10.00 Overcast SCT002 OVC012 64.4 62.6 94% 29.62 0.0
16 10:55 SE 6 3.00 Fog/Mist SCT002 OVC010 60.8 60.8 100% 29.64 0.0
16 10:35 E 3 5.00 Fog/Mist OVC010 60.8 59 94% 29.66 0.0
16 10:15 Calm 7.00 Overcast BKN003 OVC010 60.8 59 94% 29.69 0.0
16 09:55 Calm 7.00 Overcast OVC003 60.8 59 94% 29.69 0.0
16 09:35 Calm 5.00 Fog/Mist OVC001 59 57.2 94% 29.67 0.0
16 09:15 E 3 4.00 Fog/Mist OVC001 59 57.2 94% 29.65 0.0
16 08:55 E 3 4.00 Fog/Mist OVC001 57.2 57.2 100% 29.64 0.0
16 08:35 SE 5 3.00 Fog/Mist OVC001 57.2 57.2 100% 29.64 0.0
16 08:15 SE 5 2.00 Fog/Mist OVC001 57.2 57.2 100% 29.64 0.0
16 07:55 SE 6 1.00 Fog/Mist OVC001 57.2 57.2 100% 29.63 0.0
16 07:35 SE 5 0.50 Fog OVC001 57.2 57.2 100% 29.63 0.0
16 07:15 SE 6 0.25 Fog OVC001 57.2 55.4 94% 29.64 0.0
16 06:55 SE 3 0.50 Fog OVC001 57.2 55.4 94% 29.65 0.0
16 06:35 E 3 0.75 Fog/Mist OVC001 57.2 55.4 94% 29.65 0.0
16 06:15 SE 6 0.75 Fog/Mist OVC001 57.2 55.4 94% 29.66 0.0
16 05:55 SE 3 0.75 Fog/Mist OVC001 57.2 55.4 94% 29.67 0.0
16 05:35 SE 3 1.50 Fog/Mist OVC001 57.2 55.4 94% 29.67 0.0
16 05:15 Calm 1.50 Fog/Mist OVC001 57.2 55.4 94% 29.67 0.0
16 04:55 E 5 1.50 Fog/Mist OVC001 57.2 55.4 94% 29.66 0.0
16 04:35 E 6 1.50 Fog/Mist OVC001 57.2 55.4 94% 29.66 0.0
16 04:15 SE 5 1.25 Fog/Mist OVC001 57.2 55.4 94% 29.66 0.0
16 03:55 SE 5 2.50 Fog/Mist OVC001 57.2 55.4 94% 29.67 0.0
16 03:35 SE 6 3.00 Fog/Mist OVC003 57.2 55.4 94% 29.69 0.0
16 03:15 E 5 3.00 Light Rain OVC003 55.4 55.4 100% 29.71 0.0
16 02:55 SE 6 3.00 Rain OVC003 55.4 55.4 100% 29.72 0.0
16 02:35 SE 5 4.00 Fog/Mist OVC003 55.4 55.4 100% 29.72 0.0
Date Time (cdt) Wind (mph) Vis. (mi.) Weather Sky Cond. Air Dwpt Max. Min. Relative Humidity Wind Chill (°F) Heat Index (°F) altimeter (in) sea level (mb) 1 hr 3 hr 6 hr
6 hour
Temperature (ºF) Pressure Precipitation (in)